TimeEST,TemperatureF,Dew PointF,Humidity,Sea Level PressureIn,VisibilityMPH,Wind Direction,Wind SpeedMPH,Gust SpeedMPH,PrecipitationIn,Events,Conditions,WindDirDegrees,DateUTC
12:53 AM,33.1,26.1,75,30.60,10.0,Calm,Calm,-,N/A,,Clear,0,2013-11-05 05:53:00
1:53 AM,33.1,26.1,75,30.58,10.0,Calm,Calm,-,N/A,,Clear,0,2013-11-05 06:53:00
2:53 AM,33.1,26.1,75,30.59,10.0,Calm,Calm,-,N/A,,Clear,0,2013-11-05 07:53:00
3:53 AM,30.0,26.1,85,30.60,10.0,Calm,Calm,-,N/A,,Clear,0,2013-11-05 08:53:00
4:53 AM,32.0,26.1,79,30.61,10.0,Calm,Calm,-,N/A,,Clear,0,2013-11-05 09:53:00
5:53 AM,30.9,26.1,82,30.60,10.0,Calm,Calm,-,N/A,,Clear,0,2013-11-05 10:53:00
6:53 AM,30.9,26.1,82,30.62,10.0,Calm,Calm,-,N/A,,Clear,0,2013-11-05 11:53:00
7:53 AM,35.1,27.0,72,30.62,10.0,Calm,Calm,-,N/A,,Clear,0,2013-11-05 12:53:00
8:53 AM,39.0,26.1,60,30.63,10.0,NNW,3.5,-,N/A,,Mostly Cloudy,330,2013-11-05 13:53:00
9:19 AM,43.0,26.1,51,30.61,10.0,Calm,Calm,-,N/A,,Scattered Clouds,0,2013-11-05 14:19:00
9:53 AM,44.1,27.0,51,30.63,10.0,Variable,4.6,-,N/A,,Clear,0,2013-11-05 14:53:00
10:53 AM,46.0,30.0,54,30.61,10.0,SSW,3.5,-,N/A,,Clear,200,2013-11-05 15:53:00
11:53 AM,48.0,30.9,52,30.58,10.0,West,3.5,-,N/A,,Clear,260,2013-11-05 16:53:00
12:53 PM,50.0,32.0,50,30.55,10.0,Calm,Calm,-,N/A,,Mostly Cloudy,0,2013-11-05 17:53:00
1:05 PM,51.1,33.1,50,30.53,10.0,South,4.6,-,N/A,,Scattered Clouds,190,2013-11-05 18:05:00
1:53 PM,51.1,35.1,54,30.54,10.0,Calm,Calm,-,N/A,,Partly Cloudy,0,2013-11-05 18:53:00
2:53 PM,52.0,36.0,54,30.52,10.0,Calm,Calm,-,N/A,,Clear,0,2013-11-05 19:53:00
3:53 PM,52.0,37.0,57,30.52,10.0,SE,4.6,-,N/A,,Clear,140,2013-11-05 20:53:00
4:53 PM,50.0,37.9,63,30.50,10.0,Calm,Calm,-,N/A,,Clear,0,2013-11-05 21:53:00
5:53 PM,46.9,37.9,71,30.50,10.0,Calm,Calm,-,N/A,,Partly Cloudy,0,2013-11-05 22:53:00
6:53 PM,46.0,37.9,73,30.52,10.0,Calm,Calm,-,N/A,,Clear,0,2013-11-05 23:53:00
7:53 PM,46.0,39.0,76,30.49,10.0,Calm,Calm,-,N/A,,Mostly Cloudy,0,2013-11-06 00:53:00
8:53 PM,46.9,41.0,80,30.49,10.0,Calm,Calm,-,N/A,,Overcast,0,2013-11-06 01:53:00
9:02 PM,46.9,41.0,80,30.48,10.0,Calm,Calm,-,N/A,,Overcast,0,2013-11-06 02:02:00
9:19 PM,46.9,41.0,80,30.48,10.0,Calm,Calm,-,N/A,,Overcast,0,2013-11-06 02:19:00
9:53 PM,48.0,41.0,77,30.49,10.0,Calm,Calm,-,N/A,,Overcast,0,2013-11-06 02:53:00
10:53 PM,46.9,41.0,80,30.46,9.0,Calm,Calm,-,N/A,,Overcast,0,2013-11-06 03:53:00
11:53 PM,48.0,42.1,80,30.45,10.0,Calm,Calm,-,N/A,,Overcast,0,2013-11-06 04:53:00